[Iaude] MPEC C103: 2024 CU1 [a=0.73,e=0.44,i=8.5,H=26.2]

mpec at cfa.harvard.edu mpec at cfa.harvard.edu
Fri Feb 9 11:58:53 EST 2024


M.P.E.C. 2024-C103                             Issued 2024 February 9, 16:57 UT

     The Minor Planet Electronic Circulars contain information on unusual
         minor planets, routine data on comets and natural satellites,
         and occasional editorial announcements.  They are published
    on behalf of Division F of the International Astronomical Union by the
          Minor Planet Center, Smithsonian Astrophysical Observatory,
                          Cambridge, MA 02138, U.S.A.
			  
             Prepared using the Tamkin Foundation Computer Network

                              MPC at CFA.HARVARD.EDU
            URL https://www.minorplanetcenter.net/    ISSN 1523-6714

                                    2024 CU1                                    


Observations:
     K24C01U* C2024 02 07.50101213 11 35.087+17 43 36.66         21.25wXEC103F52
     K24C01U  C2024 02 07.52836613 11 34.147+17 44 52.08         21.44wXEC103F52
     K24C01U  C2024 02 07.54203913 11 33.609+17 45 29.56         21.44wXEC103F52
     K24C01U  C2024 02 07.65422813 11 28.362+17 50 26.35         21.78GVEC103F52
     K24C01U  C2024 02 07.65504713 11 28.328+17 50 28.35         21.46GVEC103F52
     K24C01U 2C2024 02 08.04972613 11 58.286+18 08 15.75         21.6 GVEC103J04
     K24C01U 6C2024 02 08.16428813 11 51.909+18 14 02.49         20.7 GVEC103Z84
     K24C01U 6C2024 02 08.17280313 11 51.564+18 14 29.28         20.8 GVEC103Z84
     K24C01U 6C2024 02 08.18132713 11 51.222+18 14 55.87         20.2 GVEC103Z84
     K24C01U  C2024 02 09.53428913 12 56.538+19 45 43.08         20.04GVEC103F52
     K24C01U  C2024 02 09.53510813 12 56.492+19 45 47.41         20.04GVEC103F52

Observer details:
F52 Pan-STARRS 2, Haleakala.  Observers J. Herman, T. Lowe, P. Minguez, A.
    Schultz, I. Smith.  Measurers K. Chambers, T. de Boer, J. Fairlamb, H.
    Gao, M. Huber, C.-C. Lin, E. Magnier, Y. Ramanjooloo, R. Wainscoat, R.
    Weryk.  1.8-m Ritchey-Chretien + CCD.
J04 ESA Optical Ground Station, Tenerife.  Observers P. Ruiz, M. Micheli, F.
    Ocana, L. Conversi.  Measurers M. Micheli, R. Kresken, F. Ocana.
    1.0-m f/4.4 reflector + CCD.
Z84 Calar Alto-Schmidt.  Observers M. Micheli, R. Kresken, L. Conversi.
    Measurers R. Kresken, M. Micheli, F. Ocana.  0.8-m f/3 Schmidt + CCD.

Orbital elements:
2024 CU1                                                 Earth MOID = 0.0038 AU
Epoch 2023 Sept. 13.0 TT = JDT 2460200.5                MPC                     
M 346.29559              (2000.0)            P               Q                  
n   1.58712675     Peri.  335.47518     +0.52914847     +0.84458295             
a   0.7278831      Node   326.30321     -0.75215903     +0.42228074             
e   0.4438002      Incl.    8.47247     -0.39275780     +0.32917870             
P   0.62           H   26.23          G   0.15           U   8                  
Residuals in seconds of arc
240207 F52  0.2+  0.0     240207 F52  0.0   0.1-    240208 Z84  0.0   0.0
240207 F52  0.1+  0.0     240208 J04  0.0   0.0     240209 F52  0.0   0.0
240207 F52  0.1+  0.1+    240208 Z84  0.0   0.1-    240209 F52  0.0   0.0
240207 F52  0.0   0.0     240208 Z84  0.0   0.0

Ephemeris:
2024 CU1                 a,e,i = 0.73, 0.44, 8                   q = 0.4048
Date    TT    R. A. (2000) Decl.     Delta      r    Elong.  Phase     V
2024 01 10    12 52 49.3 +14 34 37   0.2175  1.0504   102.0    66.3    25.4
...
2024 01 25    13 04 00.6 +14 39 29   0.1277  1.0424   113.8    59.8    24.0
...
2024 02 02    13 08 35.2 +15 34 28   0.07829 1.0272   120.4    55.9    22.8
...
2024 02 08    13 11 45.2 +18 06 49   0.04104 1.0107   125.4    52.7    21.3
2024 02 09    13 12 24.9 +19 05 09   0.03484 1.0075   126.2    52.2    20.9
2024 02 10    13 13 14.0 +20 28 53   0.02867 1.0042   127.0    51.7    20.4
...
2024 02 16    01 01 06.4 +10 17 59   0.0097560.9817    51.7   127.9    21.6
...
2024 02 24    01 07 15.0 -09 37 37   0.05888 0.9449    39.8   137.9    26.5
...
2024 03 10    00 58 36.5 -11 53 26   0.1563  0.8543    25.2   150.3    30.4

A. U. Tomatic                (C) Copyright 2024 MPC           M.P.E.C. 2024-C103





More information about the Iaude mailing list